This is the latest recevied weather packets stored in our database for station/object DG4MND-4. If no packets are shown the sender has not sent any weather packets the latest 10 day(s).
| Time | Temp. | Humidity | Pressure | Rain* | Wind** | Luminosity | Snow |
|---|---|---|---|---|---|---|---|
| 1777594248 | 5° C | 51% | 1024.7 hPa | 0 mm | - | - | - |
| 1777593644 | 5° C | 50% | 1024.5 hPa | 0 mm | - | - | - |
| 1777593044 | 5.56° C | 48% | 1024.6 hPa | 0 mm | - | - | - |
| 1777592440 | 6.11° C | 47% | 1024.6 hPa | 0 mm | - | - | - |
| 1777591834 | 6.67° C | 44% | 1024.8 hPa | 0 mm | - | - | - |
| 1777591230 | 6.67° C | 44% | 1024.5 hPa | 0 mm | - | - | - |
| 1777590627 | 7.22° C | 43% | 1024.6 hPa | 0 mm | - | - | - |
| 1777590023 | 7.22° C | 43% | 1024.7 hPa | 0 mm | - | - | - |
| 1777589423 | 7.22° C | 43% | 1024.7 hPa | 0 mm | - | - | - |
| 1777588817 | 6.67° C | 44% | 1024.6 hPa | 0 mm | - | - | - |
| 1777588281 | 6.67° C | 44% | 1024.6 hPa | 0 mm | - | - | - |
| 1777587670 | 6.67° C | 44% | 1024.7 hPa | 0 mm | - | - | - |
| 1777587069 | 7.22° C | 43% | 1024.7 hPa | 0 mm | - | - | - |
| 1777586463 | 7.78° C | 42% | 1024.7 hPa | 0 mm | - | - | - |
| 1777585859 | 7.78° C | 41% | 1024.7 hPa | 0 mm | - | - | - |
| 1777585256 | 7.78° C | 41% | 1024.6 hPa | 0 mm | - | - | - |
| 1777584652 | 8.33° C | 40% | 1024.7 hPa | 0 mm | - | - | - |
| 1777584049 | 8.33° C | 40% | 1024.9 hPa | 0 mm | - | - | - |
| 1777583449 | 8.33° C | 39% | 1024.8 hPa | 0 mm | - | - | - |
| 1777582846 | 8.33° C | 39% | 1024.8 hPa | 0 mm | - | - | - |
| 1777582239 | 8.33° C | 39% | 1024.7 hPa | 0 mm | - | - | - |
| 1777581636 | 8.33° C | 39% | 1024.8 hPa | 0 mm | - | - | - |
| 1777581032 | 7.78° C | 40% | 1024.8 hPa | 0 mm | - | - | - |
| 1777580431 | 7.78° C | 41% | 1024.9 hPa | 0 mm | - | - | - |
| 1777579828 | 7.78° C | 42% | 1024.6 hPa | 0 mm | - | - | - |
* Rain latest hour (hover to see other rain measurements)
** Current wind speed in m/s (hover to see current wind gust speed)